Alexander City, AL

11:49 PM CST on February 20, 2018 (GMT -0600)
Russell

Weather History for KALX - March, 2013

Change the Weather History Date:

Tuesday, March 19, 2013

  Actual Average (KAUO) Record (KAUO)
Temperature  
Mean Temperature 59 °F -  
Max Temperature 69 °F 68 °F 88 °F (1982)
Min Temperature 49 °F 41 °F 28 °F (1967)
Degree Days  
Heating Degree Days 6    
Growing Degree Days 9 (Base 50)    
Moisture  
Dew Point 34 °F    
Average Humidity 46    
Maximum Humidity 91    
Minimum Humidity 11    
Precipitation  
Precipitation 0.08 in - - ()
Sea Level Pressure  
Sea Level Pressure 30.03 in    
Wind  
Wind Speed 8 mph (North)    
Max Wind Speed 18 mph    
Max Gust Speed 23 mph    
Visibility 10 miles    
Events Rain , Thunderstorm    
Averages and records for this station are not official NWS values.
T = Trace of Precipitation, MM = Missing Value Source: NWS Daily Summary

Daily Weather History Graph

Daily Weather History Graph

Search for Another Location

Airport or City:

Trip Planner

Search our weather history database for the weather conditions in past years. The results will help you decide how hot, cold, wet, or windy it might be!

Date:

Astronomy

Mar. 19, 2013 Rise Set
Actual Time 6:48 AM CDT 6:54 PM CDT
Civil Twilight 6:23 AM CDT 7:19 PM CDT
Nautical Twilight 5:55 AM CDT 7:48 PM CDT
Astronomical Twilight 5:26 AM CDT 8:17 PM CDT
Moon 11:55 AM CDT (3/19) 1:24 AM CDT (3/19)
Length of Visible Light 12h 55m
Length of Day
12h 06m
Waxing Crescent, 50% of the Moon is Illuminated
Mar 19
Waxing Crescent
Mar 19
First Quarter
Mar 27
Full
Apr 2
Last Quarter
Apr 10
New

Hourly Weather History & Observations

Time (CDT) Temp. Dew Point Humidity Pressure Visibility Wind Dir Wind Speed Gust Speed Precip Events Conditions
12:15 AM 57.2 °F 54.5 °F 91% 29.93 in 10.0 mi West 8.1 mph - N/A Thunderstorm Thunderstorm
12:35 AM 57.2 °F 54.5 °F 91% 29.91 in 7.0 mi ESE 3.5 mph - 0.02 in Rain Light Rain
12:55 AM 57.2 °F 54.5 °F 91% 29.91 in 10.0 mi NW 4.6 mph - 0.03 in   Mostly Cloudy
1:15 AM 57.2 °F 54.5 °F 91% 29.92 in 10.0 mi NW 6.9 mph - N/A Thunderstorm Mostly Cloudy
1:35 AM 57.2 °F 53.8 °F 88% 29.95 in 10.0 mi WNW 9.2 mph - 0.01 in Rain Rain
1:55 AM 57.2 °F 53.6 °F 88% 29.93 in 10.0 mi NNW 8.1 mph - 0.05 in Rain , Thunderstorm Light Thunderstorms and Rain
2:15 AM 57.2 °F 53.6 °F 88% 29.92 in 10.0 mi North 9.2 mph - N/A   Light Drizzle
2:35 AM 57.2 °F 53.6 °F 88% 29.93 in 10.0 mi NNW 9.2 mph - N/A   Scattered Clouds
2:55 AM 57.2 °F 53.1 °F 86% 29.94 in 10.0 mi NNW 10.4 mph - N/A   Scattered Clouds
3:15 AM 57.2 °F 52.3 °F 84% 29.94 in 10.0 mi NNW 13.8 mph - N/A   Scattered Clouds
3:35 AM 57.2 °F 52.7 °F 85% 29.94 in 10.0 mi NNW 8.1 mph - N/A   Scattered Clouds
3:55 AM 57.2 °F 52.9 °F 85% 29.94 in 10.0 mi NNW 10.4 mph 17.3 mph N/A   Scattered Clouds
4:15 AM 57.2 °F 52.9 °F 85% 29.96 in 10.0 mi North 10.4 mph 16.1 mph N/A   Mostly Cloudy
4:35 AM 57.2 °F 51.6 °F 82% 29.96 in 10.0 mi NNW 13.8 mph 23.0 mph N/A   Overcast
4:55 AM 57.2 °F 51.1 °F 80% 29.98 in 10.0 mi North 15.0 mph 23.0 mph N/A   Overcast
5:15 AM 54.7 °F 47.8 °F 78% 30.00 in 10.0 mi North 18.4 mph 23.0 mph N/A   Overcast
5:35 AM 54.7 °F 48.2 °F 79% 30.01 in 10.0 mi North 15.0 mph 23.0 mph N/A   Overcast
5:55 AM 54.7 °F 47.7 °F 77% 30.03 in 10.0 mi North 13.8 mph 20.7 mph N/A   Scattered Clouds
6:15 AM 52.2 °F 44.6 °F 75% 30.05 in 10.0 mi North 10.4 mph 19.6 mph N/A   Clear
6:35 AM 52.0 °F 43.7 °F 73% 30.05 in 10.0 mi North 6.9 mph - N/A   Clear
6:55 AM 50.2 °F 41.9 °F 73% 30.05 in 10.0 mi North 4.6 mph - N/A   Clear
7:15 AM 49.6 °F 40.1 °F 70% 30.06 in 10.0 mi North 5.8 mph - N/A   Clear
7:35 AM 49.6 °F 37.8 °F 64% 30.06 in 10.0 mi NE 3.5 mph - N/A   Clear
7:55 AM 50.0 °F 36.9 °F 61% 30.06 in 10.0 mi NE 3.5 mph - N/A   Clear
8:15 AM 52.2 °F 36.3 °F 55% 30.06 in 10.0 mi NE 5.8 mph - N/A   Clear
8:35 AM 52.2 °F 33.4 °F 49% 30.06 in 10.0 mi NE 9.2 mph - N/A   Clear
8:55 AM 54.7 °F 35.6 °F 49% 30.06 in 10.0 mi NNE 3.5 mph - N/A   Clear
9:15 AM 54.7 °F 34.7 °F 47% 30.07 in 10.0 mi NE 4.6 mph - N/A   Clear
9:35 AM 54.7 °F 33.1 °F 44% 30.07 in 10.0 mi NNE 5.8 mph - N/A   Clear
9:55 AM 57.2 °F 34.5 °F 43% 30.08 in 10.0 mi NE 3.5 mph - N/A   Clear
10:15 AM 57.4 °F 32.2 °F 39% 30.08 in 10.0 mi North 4.6 mph - N/A   Clear
10:35 AM 59.9 °F 31.5 °F 34% 30.08 in 10.0 mi NE 5.8 mph - N/A   Clear
10:55 AM 60.1 °F 31.1 °F 33% 30.08 in 10.0 mi North 10.4 mph - N/A   Clear
11:15 AM 61.0 °F 28.0 °F 29% 30.08 in 10.0 mi North 8.1 mph - N/A   Clear
11:35 AM 62.2 °F 30.2 °F 30% 30.08 in 10.0 mi NNE 6.9 mph - N/A   Clear
11:55 AM 63.0 °F 27.3 °F 26% 30.07 in 10.0 mi NW 6.9 mph - N/A   Clear
12:15 PM 67.3 °F 27.9 °F 23% 30.07 in 10.0 mi NNW 8.1 mph - N/A   Clear
12:35 PM 68.0 °F 25.7 °F 20% 30.07 in 10.0 mi NNW 5.8 mph - N/A   Clear
12:55 PM 69.8 °F 25.3 °F 19% 30.07 in 10.0 mi North 11.5 mph - N/A   Clear
1:15 PM 69.8 °F 24.1 °F 18% 30.06 in 10.0 mi North 5.8 mph - N/A   Clear
1:35 PM 69.8 °F 27.0 °F 20% 30.06 in 10.0 mi NNW 11.5 mph 16.1 mph N/A   Clear
1:55 PM 69.8 °F 23.9 °F 18% 30.06 in 10.0 mi NNW 12.7 mph 16.1 mph N/A   Clear
2:15 PM 69.8 °F 21.7 °F 16% 30.05 in 10.0 mi NW 10.4 mph 16.1 mph N/A   Clear
2:35 PM 69.8 °F 21.9 °F 16% 30.05 in 10.0 mi North 11.5 mph 19.6 mph N/A   Clear
2:55 PM 69.8 °F 20.3 °F 15% 30.05 in 10.0 mi North 13.8 mph - N/A   Clear
3:15 PM 69.8 °F 11.7 °F 11% 30.05 in 10.0 mi North 9.2 mph - N/A   Clear
3:35 PM 69.8 °F 12.6 °F 11% 30.05 in 10.0 mi NNW 12.7 mph 17.3 mph N/A   Clear
3:55 PM 69.8 °F 12.2 °F 11% 30.05 in 10.0 mi NNW 12.7 mph 18.4 mph N/A   Clear
4:15 PM 69.8 °F 16.3 °F 13% 30.04 in 10.0 mi North 10.4 mph 19.6 mph N/A   Clear
4:35 PM 69.8 °F 13.6 °F 12% 30.04 in 10.0 mi North 10.4 mph 17.3 mph N/A   Clear
4:55 PM 69.8 °F 16.5 °F 13% 30.04 in 10.0 mi North 11.5 mph - N/A   Clear
5:15 PM 69.8 °F 20.5 °F 15% 30.04 in 10.0 mi NE 4.6 mph - N/A   Clear
5:35 PM 69.8 °F 22.6 °F 17% 30.04 in 10.0 mi NNE 5.8 mph - N/A   Clear
5:55 PM 69.8 °F 24.3 °F 18% 30.04 in 10.0 mi NNE 5.8 mph - N/A   Clear
6:15 PM 67.3 °F 21.9 °F 18% 30.04 in 10.0 mi NNE 8.1 mph - N/A   Clear
6:35 PM 64.8 °F 22.3 °F 20% 30.04 in 10.0 mi North 5.8 mph - N/A   Clear
6:55 PM 62.8 °F 23.5 °F 22% 30.04 in 10.0 mi NE 3.5 mph - N/A   Clear
7:15 PM 62.2 °F 23.9 °F 23% 30.04 in 10.0 mi NE 3.5 mph - N/A   Clear
7:35 PM 61.0 °F 24.4 °F 25% 30.05 in 10.0 mi NNE 3.5 mph - N/A   Clear
7:55 PM 59.9 °F 24.4 °F 26% 30.05 in 10.0 mi NE 3.5 mph - N/A   Clear
8:15 PM 59.9 °F 25.5 °F 27% 30.06 in 10.0 mi NNE 3.5 mph - N/A   Clear
8:35 PM 59.9 °F 26.4 °F 28% 30.06 in 10.0 mi Calm Calm - N/A   Clear
8:55 PM 59.9 °F 27.0 °F 29% 30.07 in 10.0 mi Calm Calm - N/A   Clear
9:15 PM 57.6 °F 27.0 °F 31% 30.07 in 10.0 mi Calm Calm - N/A   Clear
9:35 PM 57.2 °F 30.2 °F 36% 30.08 in 10.0 mi Calm Calm - N/A   Clear
9:55 PM 57.2 °F 31.6 °F 38% 30.08 in 10.0 mi Calm Calm - N/A   Clear
10:15 PM 54.7 °F 32.0 °F 42% 30.08 in 10.0 mi North 3.5 mph - N/A   Clear
10:35 PM 54.7 °F 31.1 °F 41% 30.08 in 10.0 mi North 4.6 mph - N/A   Clear
10:55 PM 54.7 °F 32.0 °F 42% 30.09 in 10.0 mi North 5.8 mph - N/A   Clear
11:15 PM 54.7 °F 31.8 °F 42% 30.09 in 10.0 mi NNE 4.6 mph - N/A   Clear
11:35 PM 54.7 °F 32.2 °F 42% 30.09 in 10.0 mi North 4.6 mph - N/A   Clear
11:55 PM 54.7 °F 32.2 °F 42% 30.08 in 10.0 mi NNE 4.6 mph - N/A   Clear